Weather reports worldwide

Advertisment
Villanueva De Cordoba, Spain (8346): temperature & dewpoint: 05.12.2019 08:00:00 - 11.12.2019 08:00:00 (CET)Villanueva De Cordoba, Spain (8346): wind speed & gusts: 05.12.2019 08:00:00 - 11.12.2019 08:00:00 (CET)Villanueva De Cordoba, Spain (8346): wind direction: 05.12.2019 08:00:00 - 11.12.2019 08:00:00 (CET)Villanueva De Cordoba, Spain (8346): reduced air pressure: 05.12.2019 08:00:00 - 11.12.2019 08:00:00 (CET)Villanueva De Cordoba, Spain (8346): visibility: 05.12.2019 08:00:00 - 11.12.2019 08:00:00 (CET)Villanueva De Cordoba, Spain (8346): sunshine duration: 05.12.2019 08:00:00 - 11.12.2019 08:00:00 (CET)Villanueva De Cordoba, Spain (8346): precipitation: 05.12.2019 08:00:00 - 11.12.2019 08:00:00 (CET)
Date & Time tt [°C] td [°C] ff [km/h] ff [kn] fx [km/h] fx [kn] dd ppp [hPa] vv [km] sd [min] rr [mm]
11.12.2019 08:00:00 5,0 3,2 6 3 10 5 WSW 1026,9 15 0 0,0
11.12.2019 07:00:00 5,2 3,0 5 3 10 5 SW 1026,4 13 0 -
11.12.2019 06:00:00 5,5 2,7 6 3 9 5 WNW 1026,5 20 0 0,0
11.12.2019 05:00:00 6,0 1,7 5 3 6 4 W 1026,6 20 0 0,0
11.12.2019 04:00:00 6,6 0,4 5 3 7 4 W 1026,7 20 0 0,0
11.12.2019 03:00:00 6,2 2,9 2 1 6 3 NNW 1027,0 20 0 0,0
11.12.2019 02:00:00 6,4 3,2 4 2 13 7 NNW 1027,3 20 0 0,0
11.12.2019 01:00:00 7,0 3,0 9 5 13 7 NW 1027,7 20 0 -
11.12.2019 00:00:00 7,1 3,0 9 5 13 7 NNW 1027,8 20 0 0,0
10.12.2019 23:00:00 7,2 3,4 6 3 12 7 NNW 1027,8 20 0 0,0
10.12.2019 22:00:00 7,5 3,4 8 4 14 8 NW 1027,8 20 0 0,0
10.12.2019 21:00:00 7,7 3,4 6 3 13 7 NNW 1027,8 20 0 0,0
10.12.2019 20:00:00 8,3 4,1 9 5 17 9 NNW 1027,8 14 0 0,0
10.12.2019 19:00:00 8,7 3,0 10 5 16 9 NW 1027,7 20 0 -
10.12.2019 18:00:00 10,0 3,0 10 6 18 10 NW 1027,2 20 0 0,0
10.12.2019 17:00:00 12,2 0,6 12 6 22 12 NW 1026,5 20 25 0,0
10.12.2019 16:00:00 13,3 0,6 6 3 18 10 N 1026,3 20 60 0,0
10.12.2019 15:00:00 12,5 3,2 11 6 19 10 NNW 1027,0 20 60 0,0
10.12.2019 14:00:00 14,0 5,3 5 3 11 6 NNE 1027,0 20 55 0,0
10.12.2019 13:00:00 12,5 5,1 4 2 10 5 N 1028,2 20 38 -
10.12.2019 12:00:00 12,3 4,8 4 2 9 5 N 1028,9 20 60 0,0
10.12.2019 11:00:00 11,0 2,1 3 1 9 5 NE 1029,2 20 60 0,0
10.12.2019 10:00:00 9,5 0,2 5 3 19 11 E 1029,6 20 55 0,0
10.12.2019 09:00:00 6,1 -0,5 9 5 19 10 E 1030,6 20 0 0,0
10.12.2019 08:00:00 4,9 1,5 7 4 11 6 E 1031,2 20 0 0,0
10.12.2019 07:00:00 4,1 3,0 6 3 9 5 ENE 1031,5 20 0 -
10.12.2019 06:00:00 4,1 3,0 7 4 19 10 N 1031,4 20 0 0,0
10.12.2019 05:00:00 5,0 4,1 9 5 13 7 E 1030,9 20 0 0,0
10.12.2019 04:00:00 3,9 3,0 4 2 12 6 N - - 0 0,0
10.12.2019 03:00:00 4,0 3,0 4 2 10 5 S 1032,0 9 0 0,0
10.12.2019 02:00:00 5,8 5,0 6 3 10 6 NNE 1031,7 0,2 0 0,0
10.12.2019 01:00:00 6,6 5,8 6 3 10 5 NNE 1031,9 0,1 0 -
10.12.2019 00:00:00 6,8 5,9 5 3 14 8 N 1032,0 0,1 0 0,0
09.12.2019 23:00:00 7,3 6,4 7 4 22 12 NNW 1031,7 0,2 0 0,0
09.12.2019 22:00:00 7,3 6,2 7 4 16 9 NNW 1031,6 0,2 0 0,0
09.12.2019 21:00:00 7,1 5,9 4 2 12 6 NNE 1031,5 7 0 0,0
09.12.2019 20:00:00 7,6 6,2 4 2 9 5 NNE 1031,0 18 0 0,0
09.12.2019 19:00:00 8,0 6,4 4 2 17 9 NW 1030,5 20 0 -
09.12.2019 18:00:00 9,2 6,8 8 5 19 11 NNW 1030,5 20 5 0,0
09.12.2019 17:00:00 11,5 7,4 7 4 14 8 NNW 1029,6 20 24 0,0
09.12.2019 16:00:00 11,9 7,4 7 4 14 7 NW 1029,3 20 60 0,0
09.12.2019 15:00:00 11,7 7,3 4 2 13 7 N 1029,3 20 49 0,0
09.12.2019 14:00:00 10,5 7,1 5 3 15 8 N 1030,3 20 12 0,0
09.12.2019 13:00:00 10,4 8,0 7 4 13 7 NW 1031,1 20 6 -
09.12.2019 12:00:00 9,9 8,7 4 2 8 5 NNW 1031,6 20 0 0,0
09.12.2019 11:00:00 9,5 8,5 3 2 8 5 W 1031,4 20 0 0,0
09.12.2019 10:00:00 9,3 8,4 2 1 8 4 ENE 1030,6 2,1 0 0,2
09.12.2019 09:00:00 8,8 7,8 3 2 8 4 N 1030,4 0,3 0 0,0
09.12.2019 08:00:00 8,4 7,4 2 1 10 6 NE 1030,0 0,2 0 0,0
09.12.2019 07:00:00 9,1 8,1 5 3 12 7 NE 1029,2 0,5 0 -
09.12.2019 06:00:00 9,1 8,0 4 2 8 5 N 1029,0 0,2 0 0,0
09.12.2019 05:00:00 9,1 8,0 1 1 6 3 N 1028,9 0,2 0 0,0
09.12.2019 04:00:00 8,9 7,8 2 1 5 3 WSW 1028,7 0,2 0 0,0
09.12.2019 03:00:00 8,8 7,6 4 2 13 7 NNW 1028,7 1,9 0 0,0
09.12.2019 02:00:00 8,8 7,6 5 3 14 8 NNE 1028,7 4,1 0 0,0
09.12.2019 01:00:00 8,9 7,6 6 3 16 9 NNW 1028,6 9 0 -
09.12.2019 00:00:00 8,9 7,1 8 4 19 10 NNW 1028,7 12 0 0,0
08.12.2019 23:00:00 8,8 6,5 5 3 16 9 NW 1028,3 20 0 0,0
08.12.2019 22:00:00 9,3 6,8 7 4 13 7 NW 1028,2 20 0 0,0
08.12.2019 21:00:00 9,1 6,5 6 3 10 6 W 1028,0 20 0 0,0
08.12.2019 20:00:00 9,0 6,2 5 3 9 5 SW 1027,6 20 0 0,0
08.12.2019 19:00:00 9,6 6,7 5 3 14 7 NNW 1027,6 20 0 -
08.12.2019 18:00:00 10,2 6,5 6 3 15 8 N 1027,3 20 0 0,0
08.12.2019 17:00:00 10,8 7,4 8 4 18 10 NNW 1026,5 20 0 0,0
08.12.2019 16:00:00 12,2 7,3 6 3 18 10 NNW 1025,7 20 0 0,0
08.12.2019 15:00:00 13,3 5,5 7 4 19 10 NW 1025,2 20 10 0,0
08.12.2019 14:00:00 13,6 5,9 5 3 16 9 NW 1025,4 20 60 0,0
08.12.2019 13:00:00 12,2 5,8 8 4 15 8 NNW 1026,5 20 60 -
08.12.2019 12:00:00 11,3 6,2 5 3 16 9 WNW 1027,5 20 60 0,0
08.12.2019 11:00:00 10,7 6,2 4 2 10 6 N 1027,7 20 60 0,0
08.12.2019 10:00:00 7,4 6,2 4 2 12 7 NE 1028,3 20 55 0,0
08.12.2019 09:00:00 5,5 4,3 4 2 8 4 NNE 1028,3 18 0 0,0
08.12.2019 08:00:00 4,6 3,4 2 1 13 7 N 1028,1 13 0 0,0
08.12.2019 07:00:00 5,2 3,8 8 4 13 7 NW 1027,7 11 0 -
08.12.2019 06:00:00 5,4 4,1 5 3 7 4 NNE 1027,2 13 0 0,0
08.12.2019 05:00:00 5,3 4,1 3 2 12 7 NW 1027,4 10 0 0,2
08.12.2019 04:00:00 5,0 3,6 5 3 12 6 NNW 1027,8 3,1 0 0,0
08.12.2019 03:00:00 6,0 4,5 4 2 10 6 NNW 1027,5 13 0 0,0
08.12.2019 02:00:00 6,1 4,5 5 3 11 6 NNW 1027,6 16 0 0,0
08.12.2019 01:00:00 6,1 4,5 4 2 14 7 NNW 1027,6 15 0 -
08.12.2019 00:00:00 6,7 4,8 6 3 13 7 NNW 1027,7 20 0 0,0
07.12.2019 23:00:00 6,9 4,8 4 2 13 7 NNW 1027,2 20 0 0,0
07.12.2019 22:00:00 7,6 5,1 7 4 14 8 NNW 1026,6 20 0 0,0
07.12.2019 21:00:00 7,8 5,3 6 4 14 7 NNW 1026,4 20 0 0,0
07.12.2019 20:00:00 8,1 5,1 7 4 14 8 NNW 1026,0 20 0 0,0
07.12.2019 19:00:00 8,9 5,6 9 5 16 9 NNW 1025,2 20 0 -
07.12.2019 18:00:00 10,3 5,9 7 4 15 8 NNW 1024,5 20 11 0,0
07.12.2019 17:00:00 12,1 5,5 9 5 20 11 NNW 1023,4 20 31 0,0
07.12.2019 16:00:00 13,0 5,6 9 5 17 9 NNW 1022,7 20 60 0,0
07.12.2019 15:00:00 13,6 5,5 8 4 15 8 NNW 1022,3 20 60 0,0
07.12.2019 14:00:00 12,9 6,5 6 4 13 7 NW 1022,9 20 60 0,0
07.12.2019 13:00:00 12,5 6,2 4 2 13 7 NNW 1023,6 20 60 -
07.12.2019 12:00:00 12,2 5,8 3 2 10 6 NNW 1024,4 20 60 0,0
07.12.2019 11:00:00 10,7 5,0 3 2 13 7 NNE 1024,8 20 60 0,0
07.12.2019 10:00:00 8,0 4,5 6 4 12 6 E 1024,9 20 56 0,0
07.12.2019 09:00:00 6,0 3,2 7 4 15 8 ENE 1025,2 20 0 0,0
07.12.2019 08:00:00 5,3 2,9 6 4 12 6 NE 1025,1 20 0 0,0
07.12.2019 07:00:00 6,4 3,2 6 4 13 7 E 1024,2 20 0 -
07.12.2019 06:00:00 6,3 3,6 5 3 16 8 ESE 1024,0 20 0 0,0
07.12.2019 05:00:00 6,3 5,0 9 5 14 8 E 1023,9 20 0 0,0
07.12.2019 04:00:00 6,4 4,6 6 3 14 8 NNW 1024,2 16 0 0,0
07.12.2019 03:00:00 6,7 4,5 8 4 10 6 ENE 1023,9 20 0 0,0
07.12.2019 02:00:00 6,7 4,8 6 3 8 5 NE 1023,8 20 0 0,0
07.12.2019 01:00:00 6,8 4,6 4 2 8 5 NNW 1024,1 20 0 -
07.12.2019 00:00:00 7,1 4,6 6 4 10 5 NE 1023,6 20 0 0,0
06.12.2019 23:00:00 7,6 4,6 5 3 10 5 ENE 1023,1 20 0 0,0
06.12.2019 22:00:00 7,5 4,8 8 4 12 6 ENE 1023,0 20 0 0,0
06.12.2019 21:00:00 8,4 5,0 8 5 13 7 E 1022,5 20 0 0,0
06.12.2019 20:00:00 8,2 5,1 7 4 10 5 E 1022,4 20 0 0,0
06.12.2019 19:00:00 9,1 5,3 7 4 10 6 ENE 1021,5 20 0 -
06.12.2019 18:00:00 11,5 5,6 7 4 16 9 NE 1020,2 20 10 0,0
06.12.2019 17:00:00 14,4 5,5 5 3 14 7 N 1018,9 20 31 0,0
06.12.2019 16:00:00 15,0 4,6 5 3 16 9 ENE 1018,6 20 60 0,0
06.12.2019 15:00:00 15,0 5,5 7 4 18 10 NNE 1018,7 20 60 0,0
06.12.2019 14:00:00 14,8 4,5 8 5 20 11 E 1019,3 20 60 0,0
06.12.2019 13:00:00 13,8 4,1 10 6 23 12 E 1020,2 20 60 -
06.12.2019 12:00:00 13,0 4,5 9 5 20 11 E 1021,0 20 60 0,0
06.12.2019 11:00:00 11,6 4,8 6 3 14 8 E 1021,6 20 60 0,0
06.12.2019 10:00:00 8,4 3,9 5 3 9 5 NE 1022,1 20 57 0,0
06.12.2019 09:00:00 4,9 2,5 4 2 9 5 NNE 1022,7 20 0 0,0
06.12.2019 08:00:00 4,7 2,3 4 2 12 7 NE 1022,2 20 0 0,0
06.12.2019 07:00:00 4,8 2,3 6 4 11 6 ENE 1021,5 20 0 -
06.12.2019 06:00:00 5,7 2,5 6 3 14 7 NNE 1020,8 20 0 0,0
06.12.2019 05:00:00 5,8 3,0 6 3 11 6 ESE 1020,7 20 0 0,0
06.12.2019 04:00:00 4,9 2,5 7 4 13 7 NE 1020,8 20 0 0,0
06.12.2019 03:00:00 4,8 2,7 8 5 17 9 NE 1020,6 20 0 0,0
06.12.2019 02:00:00 5,0 2,7 9 5 16 9 ENE 1020,6 20 0 0,0
06.12.2019 01:00:00 5,7 2,7 7 4 18 10 NE 1020,8 20 0 -
06.12.2019 00:00:00 5,8 3,2 7 4 13 7 ENE 1020,8 20 0 0,0
05.12.2019 23:00:00 5,8 3,6 6 3 14 7 ENE 1020,2 20 0 0,0
05.12.2019 22:00:00 6,1 3,8 6 4 14 7 ENE 1019,7 20 0 0,0
05.12.2019 21:00:00 7,6 4,5 9 5 22 12 ENE 1018,9 20 0 0,0
05.12.2019 20:00:00 6,7 4,1 7 4 20 11 ENE 1018,8 20 0 0,0
05.12.2019 19:00:00 7,6 4,3 8 5 16 9 E 1017,8 20 0 -
05.12.2019 18:00:00 9,3 4,6 9 5 23 12 NE 1016,8 20 13 0,0
05.12.2019 17:00:00 10,6 5,3 16 8 29 16 NE 1015,8 20 21 0,0
05.12.2019 16:00:00 11,3 4,8 16 9 33 18 ENE 1014,9 20 51 0,0
05.12.2019 15:00:00 10,3 4,6 15 8 35 19 ENE 1015,4 20 16 0,0
05.12.2019 14:00:00 9,4 4,5 15 8 35 19 ENE 1015,9 20 1 0,0
05.12.2019 13:00:00 10,0 4,3 17 9 32 18 ENE 1015,9 20 20 -
05.12.2019 12:00:00 9,2 4,3 14 7 34 18 NE 1016,5 20 5 0,0
05.12.2019 11:00:00 9,5 4,5 8 5 20 11 NNE 1015,8 20 31 0,0
05.12.2019 10:00:00 8,4 5,1 4 2 11 6 ENE 1015,7 20 31 0,0
05.12.2019 09:00:00 6,0 3,9 6 4 15 8 NE 1015,7 20 0 0,0
05.12.2019 08:00:00 6,8 4,5 10 6 21 11 NNE 1014,5 20 0 0,0

tt = temperature
td = dewpoint
ff = wind speed
fx = gusts
dd = wind direction
ppp = reduced air pressure
vv = visibility
sd = sunshine duration
rr = precipitation

Next stations